Location: Rehoboth Beach
(38.7438°N, 75.1341°W)
Time: 00:42:43
(UTC-04:00)

Cosmos 1452 Rocket - Visible Passes

Search period start: 01 November 2014 00:00
Search period end: 10 November 2014 23:00
Orbit: 769 x 776 km, 74.1° (Epoch: 31 October)

Date Brightness Start Highest point End Pass type
(mag) Time Alt. Az. Time Alt. Az. Time Alt. Az.
01 Nov 5.9 05:49:33 10° NNE 05:53:27 21° ENE 05:57:20 10° ESE visible
01 Nov 5.8 20:25:03 10° S 20:25:27 12° S 20:25:27 12° S visible
02 Nov 6.3 04:15:01 10° NNE 04:17:20 13° NE 04:19:40 10° E visible
02 Nov 3.5 05:54:54 10° NNW 06:00:10 81° WSW 06:05:24 10° SSE visible
02 Nov 5.0 18:49:47 10° SSE 18:51:50 22° SSE 18:51:50 22° SSE visible
03 Nov 4.1 05:19:11 10° N 05:24:23 60° ENE 05:29:33 10° SSE visible
03 Nov 4.7 18:15:03 10° SSE 18:18:13 22° ESE 18:18:13 22° ESE visible
03 Nov 5.3 19:55:57 10° SW 19:58:41 27° WSW 19:58:41 27° WSW visible
04 Nov 5.0 04:43:41 10° N 04:48:31 36° ENE 04:53:18 10° SE visible
04 Nov 5.2 17:41:19 10° ESE 17:43:35 13° E 17:44:34 12° E visible
04 Nov 3.7 19:19:48 10° SSW 19:25:01 69° WNW 19:25:01 69° WNW visible
05 Nov 5.8 04:08:28 10° N 04:12:32 22° ENE 04:16:34 10° ESE visible
05 Nov 3.9 05:49:54 10° NNW 05:54:52 43° WSW 05:59:47 10° S visible
05 Nov 3.4 18:44:03 10° S 18:49:17 71° ESE 18:51:14 39° NNE visible
05 Nov 6.2 20:29:07 10° W 20:31:41 15° WNW 20:31:41 15° WNW visible
06 Nov 6.3 03:33:46 10° NNE 03:36:26 14° NE 03:39:05 10° E visible
06 Nov 3.4 05:13:56 10° NNW 05:19:11 75° WSW 05:24:24 10° S visible
06 Nov 3.9 18:08:43 10° S 18:13:37 41° ESE 18:17:20 17° NE visible
06 Nov 5.6 19:51:44 10° WSW 19:55:55 23° WNW 19:57:46 19° NNW visible
07 Nov 3.9 04:38:11 10° NNW 04:43:25 65° ENE 04:48:37 10° SSE visible
07 Nov 4.6 17:33:53 10° SSE 17:38:03 24° E 17:42:14 10° NE visible
07 Nov 4.8 19:15:04 10° SW 19:19:56 38° WNW 19:23:42 16° N visible
08 Nov 4.8 04:04:13 19° N 04:07:34 38° ENE 04:12:26 10° SE visible
08 Nov 4.6 05:45:20 10° NW 05:49:26 23° W 05:53:30 10° SSW visible
08 Nov 3.9 18:38:52 10° SSW 18:44:04 63° WNW 18:49:19 10° NNE visible
09 Nov 5.5 03:30:30 22° NE 03:31:36 24° ENE 03:35:47 10° ESE visible
09 Nov 3.9 05:10:58 22° NW 05:13:52 40° WSW 05:18:42 10° S visible
09 Nov 3.4 18:03:03 10° SSW 18:08:18 77° ESE 18:13:35 10° NNE visible
09 Nov 6.3 19:48:30 10° W 19:51:05 14° NW 19:53:40 10° NNW visible
10 Nov 6.3 02:56:52 14° ENE 02:56:52 14° ENE 02:58:27 10° E visible
10 Nov 3.4 04:37:20 58° NW 04:38:12 69° WSW 04:43:23 10° S visible
10 Nov 3.9 17:27:39 10° S 17:32:38 45° ESE 17:37:38 10° NNE visible
10 Nov 5.8 19:10:57 10° WSW 19:14:59 22° WNW 19:19:01 10° N visible
